Year,Month,Day,Hour,Minute,Value (Times are PST for temperature in C)
2014,08,18,00,00,16.20
2014,08,18,00,01,16.20
2014,08,18,00,02,16.20
2014,08,18,00,03,16.20
2014,08,18,00,04,16.20
2014,08,18,00,05,16.20
2014,08,18,00,06,16.20
2014,08,18,00,07,16.20
2014,08,18,00,08,16.20
2014,08,18,00,09,16.20
2014,08,18,00,10,16.10
2014,08,18,00,11,16.20
2014,08,18,00,12,16.10
2014,08,18,00,13,16.10
2014,08,18,00,14,16.20
2014,08,18,00,15,16.20
2014,08,18,00,16,16.10
2014,08,18,00,17,16.20
2014,08,18,00,18,16.20
2014,08,18,00,19,16.20
2014,08,18,00,20,16.20
2014,08,18,00,21,16.20
2014,08,18,00,22,16.20
2014,08,18,00,23,16.20
2014,08,18,00,24,16.20
2014,08,18,00,25,16.20
2014,08,18,00,26,16.20
2014,08,18,00,27,16.20
2014,08,18,00,28,16.20
2014,08,18,00,29,16.20
2014,08,18,00,30,16.20
2014,08,18,00,31,16.20
2014,08,18,00,32,16.20
2014,08,18,00,33,16.20
2014,08,18,00,34,16.20
2014,08,18,00,35,16.20
2014,08,18,00,36,16.20
2014,08,18,00,37,16.20
2014,08,18,00,38,16.20
2014,08,18,00,39,16.20
2014,08,18,00,40,16.20
2014,08,18,00,41,16.20
2014,08,18,00,42,16.30
2014,08,18,00,43,16.30
2014,08,18,00,44,16.30
2014,08,18,00,45,16.30
2014,08,18,00,46,16.30
2014,08,18,00,47,16.30
2014,08,18,00,48,16.30
2014,08,18,00,49,16.30
2014,08,18,00,50,16.40
2014,08,18,00,51,16.40
2014,08,18,00,52,16.50
2014,08,18,00,53,16.50
2014,08,18,00,54,16.50
2014,08,18,00,55,16.60
2014,08,18,00,56,16.60
2014,08,18,00,57,16.60
2014,08,18,00,58,16.60
2014,08,18,00,59,16.60
2014,08,18,01,00,16.60
2014,08,18,01,01,16.60
2014,08,18,01,02,16.60
2014,08,18,01,03,16.60
2014,08,18,01,04,16.60
2014,08,18,01,05,16.60
2014,08,18,01,06,16.60
2014,08,18,01,07,16.60
2014,08,18,01,08,16.60
2014,08,18,01,09,16.60
2014,08,18,01,10,16.50
2014,08,18,01,11,16.50
2014,08,18,01,12,16.50
2014,08,18,01,13,16.50
2014,08,18,01,14,16.50
2014,08,18,01,15,16.50
2014,08,18,01,16,16.50
2014,08,18,01,17,16.50
2014,08,18,01,18,16.60
2014,08,18,01,19,16.60
2014,08,18,01,20,16.60
2014,08,18,01,21,16.60
2014,08,18,01,22,16.60
2014,08,18,01,23,16.60
2014,08,18,01,24,16.60
2014,08,18,01,25,16.60
2014,08,18,01,26,16.60
2014,08,18,01,27,16.50
2014,08,18,01,28,16.50
2014,08,18,01,29,16.50
2014,08,18,01,30,16.40
2014,08,18,01,31,16.40
2014,08,18,01,32,16.40
2014,08,18,01,33,16.40
2014,08,18,01,34,16.40
2014,08,18,01,35,16.40
2014,08,18,01,36,16.30
2014,08,18,01,37,16.30
2014,08,18,01,38,16.30
2014,08,18,01,39,16.30
2014,08,18,01,40,16.30
2014,08,18,01,41,16.30
2014,08,18,01,42,16.30
2014,08,18,01,43,16.30
2014,08,18,01,44,16.30
2014,08,18,01,45,16.30
2014,08,18,01,46,16.30
2014,08,18,01,47,16.30
2014,08,18,01,48,16.40
2014,08,18,01,49,16.40
2014,08,18,01,50,16.40
2014,08,18,01,51,16.40
2014,08,18,01,52,16.40
2014,08,18,01,53,16.40
2014,08,18,01,54,16.40
2014,08,18,01,55,16.40
2014,08,18,01,56,16.40
2014,08,18,01,57,16.40
2014,08,18,01,58,16.40
2014,08,18,01,59,16.40
2014,08,18,02,00,16.40
2014,08,18,02,01,16.40
2014,08,18,02,02,16.40
2014,08,18,02,03,16.40
2014,08,18,02,04,16.40
2014,08,18,02,05,16.40
2014,08,18,02,06,16.40
2014,08,18,02,07,16.40
2014,08,18,02,08,16.40
2014,08,18,02,09,16.40
2014,08,18,02,10,16.40
2014,08,18,02,11,16.40
2014,08,18,02,12,16.50
2014,08,18,02,13,16.50
2014,08,18,02,14,16.50
2014,08,18,02,15,16.50
2014,08,18,02,16,16.40
2014,08,18,02,17,16.40
2014,08,18,02,18,16.40
2014,08,18,02,19,16.40
2014,08,18,02,20,16.40
2014,08,18,02,21,16.40
2014,08,18,02,22,16.40
2014,08,18,02,23,16.40
2014,08,18,02,24,16.40
2014,08,18,02,25,16.40
2014,08,18,02,26,16.30
2014,08,18,02,27,16.30
2014,08,18,02,28,16.30
2014,08,18,02,29,16.30
2014,08,18,02,30,16.30
2014,08,18,02,31,16.30
2014,08,18,02,32,16.30
2014,08,18,02,33,16.30
2014,08,18,02,34,16.30
2014,08,18,02,35,16.30
2014,08,18,02,36,16.30
2014,08,18,02,37,16.20
2014,08,18,02,38,16.20
2014,08,18,02,39,16.20
2014,08,18,02,40,16.20
2014,08,18,02,41,16.20
2014,08,18,02,42,16.20
2014,08,18,02,43,16.20
2014,08,18,02,44,16.20
2014,08,18,02,45,16.10
2014,08,18,02,46,16.10
2014,08,18,02,47,16.10
2014,08,18,02,48,16.10
2014,08,18,02,49,16.10
2014,08,18,02,50,16.10
2014,08,18,02,51,16.00
2014,08,18,02,52,16.00
2014,08,18,02,53,16.00
2014,08,18,02,54,16.00
2014,08,18,02,55,15.90
2014,08,18,02,56,15.90
2014,08,18,02,57,15.90
2014,08,18,02,58,15.90
2014,08,18,02,59,15.90
2014,08,18,03,00,15.80
2014,08,18,03,01,15.80
2014,08,18,03,02,15.80
2014,08,18,03,03,15.80
2014,08,18,03,04,15.80
2014,08,18,03,05,15.80
2014,08,18,03,06,15.80
2014,08,18,03,07,15.80
2014,08,18,03,08,15.80
2014,08,18,03,09,15.70
2014,08,18,03,10,15.70
2014,08,18,03,11,15.70
2014,08,18,03,12,15.70
2014,08,18,03,13,15.70
2014,08,18,03,14,15.70
2014,08,18,03,15,15.70
2014,08,18,03,16,15.70
2014,08,18,03,17,15.70
2014,08,18,03,18,15.70
2014,08,18,03,19,15.70
2014,08,18,03,20,15.60
2014,08,18,03,21,15.60
2014,08,18,03,22,15.60
2014,08,18,03,23,15.60
2014,08,18,03,24,15.60
2014,08,18,03,25,15.60
2014,08,18,03,26,15.60
2014,08,18,03,27,15.60
2014,08,18,03,28,15.60
2014,08,18,03,29,15.60
2014,08,18,03,30,15.60
2014,08,18,03,31,15.60
2014,08,18,03,32,15.60
2014,08,18,03,33,15.60
2014,08,18,03,34,15.50
2014,08,18,03,35,15.50
2014,08,18,03,36,15.50
2014,08,18,03,37,15.50
2014,08,18,03,38,15.50
2014,08,18,03,39,15.50
2014,08,18,03,40,15.50
2014,08,18,03,41,15.50
2014,08,18,03,42,15.50
2014,08,18,03,43,15.50
2014,08,18,03,44,15.50
2014,08,18,03,45,15.50
2014,08,18,03,46,15.50
2014,08,18,03,47,15.50
2014,08,18,03,48,15.50
2014,08,18,03,49,15.50
2014,08,18,03,50,15.50
2014,08,18,03,51,15.50
2014,08,18,03,52,15.40
2014,08,18,03,53,15.50
2014,08,18,03,54,15.50
2014,08,18,03,55,15.50
2014,08,18,03,56,15.50
2014,08,18,03,57,15.50
2014,08,18,03,58,15.50
2014,08,18,03,59,15.40
2014,08,18,04,00,15.40
2014,08,18,04,01,15.40
2014,08,18,04,02,15.40
2014,08,18,04,03,15.40
2014,08,18,04,04,15.40
2014,08,18,04,05,15.40
2014,08,18,04,06,15.40
2014,08,18,04,07,15.40
2014,08,18,04,08,15.40
2014,08,18,04,09,15.40
2014,08,18,04,10,15.40
2014,08,18,04,11,15.40
2014,08,18,04,12,15.40
2014,08,18,04,13,15.40
2014,08,18,04,14,15.40
2014,08,18,04,15,15.40
2014,08,18,04,16,15.40
2014,08,18,04,17,15.30
2014,08,18,04,18,15.30
2014,08,18,04,19,15.30
2014,08,18,04,20,15.30
2014,08,18,04,21,15.30
2014,08,18,04,22,15.30
2014,08,18,04,23,15.30
2014,08,18,04,24,15.30
2014,08,18,04,25,15.30
2014,08,18,04,26,15.30
2014,08,18,04,27,15.30
2014,08,18,04,28,15.30
2014,08,18,04,29,15.30
2014,08,18,04,30,15.30
2014,08,18,04,31,15.30
2014,08,18,04,32,15.30
2014,08,18,04,33,15.30
2014,08,18,04,34,15.30
2014,08,18,04,35,15.30
2014,08,18,04,36,15.30
2014,08,18,04,37,15.20
2014,08,18,04,38,15.20
2014,08,18,04,39,15.20
2014,08,18,04,40,15.20
2014,08,18,04,41,15.20
2014,08,18,04,42,15.20
2014,08,18,04,43,15.10
2014,08,18,04,44,15.10
2014,08,18,04,45,15.10
2014,08,18,04,46,15.10
2014,08,18,04,47,15.10
2014,08,18,04,48,15.10
2014,08,18,04,49,15.00
2014,08,18,04,50,15.00
2014,08,18,04,51,15.00
2014,08,18,04,52,15.00
2014,08,18,04,53,15.00
2014,08,18,04,54,15.00
2014,08,18,04,55,15.00
2014,08,18,04,56,15.00
2014,08,18,04,57,15.00
2014,08,18,04,58,15.10
2014,08,18,04,59,15.10
2014,08,18,05,00,15.10
2014,08,18,05,01,15.10
2014,08,18,05,02,15.10
2014,08,18,05,03,15.10
2014,08,18,05,04,15.10
2014,08,18,05,05,15.10
2014,08,18,05,06,15.10
2014,08,18,05,07,15.10
2014,08,18,05,08,15.10
2014,08,18,05,09,15.10
2014,08,18,05,10,15.10
2014,08,18,05,11,15.10
2014,08,18,05,12,15.10
2014,08,18,05,13,15.20
2014,08,18,05,14,15.20
2014,08,18,05,15,15.20
2014,08,18,05,16,15.20
2014,08,18,05,17,15.20
2014,08,18,05,18,15.20
2014,08,18,05,19,15.20
2014,08,18,05,20,15.20
2014,08,18,05,21,15.20
2014,08,18,05,22,15.10
2014,08,18,05,23,15.10
2014,08,18,05,24,15.10
2014,08,18,05,25,15.10
2014,08,18,05,26,15.10
2014,08,18,05,27,15.10
2014,08,18,05,28,15.10
2014,08,18,05,29,15.10
2014,08,18,05,30,15.10
2014,08,18,05,31,15.10
2014,08,18,05,32,15.10
2014,08,18,05,33,15.10
2014,08,18,05,34,15.10
2014,08,18,05,35,15.00
2014,08,18,05,36,15.00
2014,08,18,05,37,15.00
2014,08,18,05,38,15.00
2014,08,18,05,39,15.00
2014,08,18,05,40,15.00
2014,08,18,05,41,14.90
2014,08,18,05,42,14.90
2014,08,18,05,43,14.90
2014,08,18,05,44,14.90
2014,08,18,05,45,14.90
2014,08,18,05,46,14.90
2014,08,18,05,47,14.90
2014,08,18,05,48,14.90
2014,08,18,05,49,14.90
2014,08,18,05,50,14.90
2014,08,18,05,51,14.90
2014,08,18,05,52,14.90
2014,08,18,05,53,14.90
2014,08,18,05,54,14.80
2014,08,18,05,55,14.80
2014,08,18,05,56,14.80
2014,08,18,05,57,14.80
2014,08,18,05,58,14.80
2014,08,18,05,59,14.80
2014,08,18,06,00,14.80
2014,08,18,06,01,14.80
2014,08,18,06,02,14.80
2014,08,18,06,03,14.80
2014,08,18,06,04,14.80
2014,08,18,06,05,14.80
2014,08,18,06,06,14.80
2014,08,18,06,07,14.80
2014,08,18,06,08,14.80
2014,08,18,06,09,14.80
2014,08,18,06,10,14.80
2014,08,18,06,11,14.80
2014,08,18,06,12,14.80
2014,08,18,06,13,14.80
2014,08,18,06,14,14.80
2014,08,18,06,15,14.80
2014,08,18,06,16,14.80
2014,08,18,06,17,14.70
2014,08,18,06,18,14.70
2014,08,18,06,19,14.70
2014,08,18,06,20,14.70
2014,08,18,06,21,14.70
2014,08,18,06,22,14.70
2014,08,18,06,23,14.70
2014,08,18,06,24,14.70
2014,08,18,06,25,14.70
2014,08,18,06,26,14.70
2014,08,18,06,27,14.70
2014,08,18,06,28,14.70
2014,08,18,06,29,14.70
2014,08,18,06,30,14.70
2014,08,18,06,31,14.70
2014,08,18,06,32,14.70
2014,08,18,06,33,14.70
2014,08,18,06,34,14.70
2014,08,18,06,35,14.70
2014,08,18,06,36,14.70
2014,08,18,06,37,14.70
2014,08,18,06,38,14.70
2014,08,18,06,39,14.70
2014,08,18,06,40,14.70
2014,08,18,06,41,14.80
2014,08,18,06,42,14.80
2014,08,18,06,43,14.80
2014,08,18,06,44,14.80
2014,08,18,06,45,14.90
2014,08,18,06,46,14.90
2014,08,18,06,47,15.00
2014,08,18,06,48,15.00
2014,08,18,06,49,15.00
2014,08,18,06,50,15.10
2014,08,18,06,51,15.10
2014,08,18,06,52,15.10
2014,08,18,06,53,15.20
2014,08,18,06,54,15.20
2014,08,18,06,55,15.30
2014,08,18,06,56,15.30
2014,08,18,06,57,15.40
2014,08,18,06,58,15.40
2014,08,18,06,59,15.50
2014,08,18,07,00,15.60
2014,08,18,07,01,15.60
2014,08,18,07,02,15.70
2014,08,18,07,03,15.70
2014,08,18,07,04,15.80
2014,08,18,07,05,15.80
2014,08,18,07,06,15.90
2014,08,18,07,07,15.90
2014,08,18,07,08,16.00
2014,08,18,07,09,16.00
2014,08,18,07,10,16.10
2014,08,18,07,11,16.10
2014,08,18,07,12,16.20
2014,08,18,07,13,16.20
2014,08,18,07,14,16.30
2014,08,18,07,15,16.30
2014,08,18,07,16,16.30
2014,08,18,07,17,16.40
2014,08,18,07,18,16.40
2014,08,18,07,19,16.40
2014,08,18,07,20,16.40
2014,08,18,07,21,16.40
2014,08,18,07,22,16.40
2014,08,18,07,23,16.40
2014,08,18,07,24,16.40
2014,08,18,07,25,16.40
2014,08,18,07,26,16.50
2014,08,18,07,27,16.50
2014,08,18,07,28,16.50
2014,08,18,07,29,16.50
2014,08,18,07,30,16.50
2014,08,18,07,31,16.60
2014,08,18,07,32,16.60
2014,08,18,07,33,16.60
2014,08,18,07,34,16.60
2014,08,18,07,35,16.60
2014,08,18,07,36,16.60
2014,08,18,07,37,16.70
2014,08,18,07,38,16.70
2014,08,18,07,39,16.80
2014,08,18,07,40,16.80
2014,08,18,07,41,16.80
2014,08,18,07,42,16.80
2014,08,18,07,43,16.90
2014,08,18,07,44,16.90
2014,08,18,07,45,17.00
2014,08,18,07,46,17.10
2014,08,18,07,47,17.10
2014,08,18,07,48,17.20
2014,08,18,07,49,17.30
2014,08,18,07,50,17.30
2014,08,18,07,51,17.40
2014,08,18,07,52,17.40
2014,08,18,07,53,17.50
2014,08,18,07,54,17.60
2014,08,18,07,55,17.60
2014,08,18,07,56,17.60
2014,08,18,07,57,17.60
2014,08,18,07,58,17.50
2014,08,18,07,59,17.50
2014,08,18,08,00,17.50
2014,08,18,08,01,17.50
2014,08,18,08,02,17.50
2014,08,18,08,03,17.50
2014,08,18,08,04,17.50
2014,08,18,08,05,17.50
2014,08,18,08,06,17.50
2014,08,18,08,07,17.50
2014,08,18,08,08,17.60
2014,08,18,08,09,17.60
2014,08,18,08,10,17.60
2014,08,18,08,11,17.60
2014,08,18,08,12,17.70
2014,08,18,08,13,17.70
2014,08,18,08,14,17.80
2014,08,18,08,15,17.80
2014,08,18,08,16,17.90
2014,08,18,08,17,17.90
2014,08,18,08,18,17.90
2014,08,18,08,19,18.00
2014,08,18,08,20,18.00
2014,08,18,08,21,18.00
2014,08,18,08,22,18.10
2014,08,18,08,23,18.10
2014,08,18,08,24,18.20
2014,08,18,08,25,18.20
2014,08,18,08,26,18.20
2014,08,18,08,27,18.20
2014,08,18,08,28,18.30
2014,08,18,08,29,18.30
2014,08,18,08,30,18.30
2014,08,18,08,31,18.30
2014,08,18,08,32,18.40
2014,08,18,08,33,18.40
2014,08,18,08,34,18.40
2014,08,18,08,35,18.30
2014,08,18,08,36,18.30
2014,08,18,08,37,18.30
2014,08,18,08,38,18.20
2014,08,18,08,39,18.20
2014,08,18,08,40,18.20
2014,08,18,08,41,18.20
2014,08,18,08,42,18.10
2014,08,18,08,43,18.00
2014,08,18,08,44,17.90
2014,08,18,08,45,17.80
2014,08,18,08,46,17.80
2014,08,18,08,47,17.70
2014,08,18,08,48,17.70
2014,08,18,08,49,17.60
2014,08,18,08,50,17.60
2014,08,18,08,51,17.60
2014,08,18,08,52,17.60
2014,08,18,08,53,17.60
2014,08,18,08,54,17.60
2014,08,18,08,55,17.70
2014,08,18,08,56,17.70
2014,08,18,08,57,17.80
2014,08,18,08,58,17.80
2014,08,18,08,59,17.90
2014,08,18,09,00,18.00
2014,08,18,09,01,18.00
2014,08,18,09,02,18.10
2014,08,18,09,03,18.10
2014,08,18,09,04,18.20
2014,08,18,09,05,18.20
2014,08,18,09,06,18.30
2014,08,18,09,07,18.40
2014,08,18,09,08,18.40
2014,08,18,09,09,18.50
2014,08,18,09,10,18.50
2014,08,18,09,11,18.60
2014,08,18,09,12,18.60
2014,08,18,09,13,18.60
2014,08,18,09,14,18.60
2014,08,18,09,15,18.70
2014,08,18,09,16,18.70
2014,08,18,09,17,18.70
2014,08,18,09,18,18.70
2014,08,18,09,19,18.70
2014,08,18,09,20,18.60
2014,08,18,09,21,18.70
2014,08,18,09,22,18.70
2014,08,18,09,23,18.80
2014,08,18,09,24,18.80
2014,08,18,09,25,18.80
2014,08,18,09,26,18.90
2014,08,18,09,27,18.90
2014,08,18,09,28,18.90
2014,08,18,09,29,18.90
2014,08,18,09,30,18.90
2014,08,18,09,31,19.00
2014,08,18,09,32,19.00
2014,08,18,09,33,19.00
2014,08,18,09,34,19.00
2014,08,18,09,35,19.00
2014,08,18,09,36,19.00
2014,08,18,09,37,19.00
2014,08,18,09,38,19.00
2014,08,18,09,39,19.00
2014,08,18,09,40,19.00
2014,08,18,09,41,19.00
2014,08,18,09,42,19.00
2014,08,18,09,43,19.00
2014,08,18,09,44,19.00
2014,08,18,09,45,19.00
2014,08,18,09,46,19.00
2014,08,18,09,47,19.10
2014,08,18,09,48,19.10
2014,08,18,09,49,19.20
2014,08,18,09,50,19.30
2014,08,18,09,51,19.40
2014,08,18,09,52,19.40
2014,08,18,09,53,19.50
2014,08,18,09,54,19.60
2014,08,18,09,55,19.60
2014,08,18,09,56,19.70
2014,08,18,09,57,19.80
2014,08,18,09,58,19.80
2014,08,18,09,59,19.80
2014,08,18,10,00,19.90
2014,08,18,10,01,19.90
2014,08,18,10,02,19.90
2014,08,18,10,03,20.00
2014,08,18,10,04,20.10
2014,08,18,10,05,20.10
2014,08,18,10,06,20.20
2014,08,18,10,07,20.20
2014,08,18,10,08,20.10
2014,08,18,10,09,20.10
2014,08,18,10,10,20.10
2014,08,18,10,11,20.10
2014,08,18,10,12,20.10
2014,08,18,10,13,20.00
2014,08,18,10,14,19.90
2014,08,18,10,15,19.80
2014,08,18,10,16,19.70
2014,08,18,10,17,19.60
2014,08,18,10,18,19.60
2014,08,18,10,19,19.60
2014,08,18,10,20,19.60
2014,08,18,10,21,19.60
2014,08,18,10,22,19.70
2014,08,18,10,23,19.80
2014,08,18,10,24,19.90
2014,08,18,10,25,20.00
2014,08,18,10,26,20.10
2014,08,18,10,27,20.20
2014,08,18,10,28,20.30
2014,08,18,10,29,20.30
2014,08,18,10,30,20.40
2014,08,18,10,31,20.40
2014,08,18,10,32,20.50
2014,08,18,10,33,20.50
2014,08,18,10,34,20.60
2014,08,18,10,35,20.70
2014,08,18,10,36,20.70
2014,08,18,10,37,20.70
2014,08,18,10,38,20.70
2014,08,18,10,39,20.70
2014,08,18,10,40,20.70
2014,08,18,10,41,20.70
2014,08,18,10,42,20.70
2014,08,18,10,43,20.70
2014,08,18,10,44,20.70
2014,08,18,10,45,20.70
2014,08,18,10,46,20.80
2014,08,18,10,47,20.70
2014,08,18,10,48,20.70
2014,08,18,10,49,20.70
2014,08,18,10,50,20.80
2014,08,18,10,51,20.80
2014,08,18,10,52,20.90
2014,08,18,10,53,21.00
2014,08,18,10,54,21.10
2014,08,18,10,55,21.20
2014,08,18,10,56,21.20
2014,08,18,10,57,21.30
2014,08,18,10,58,21.40
2014,08,18,10,59,21.50
2014,08,18,11,00,21.60
2014,08,18,11,01,21.60
2014,08,18,11,02,21.60
2014,08,18,11,03,21.50
2014,08,18,11,04,21.40
2014,08,18,11,05,21.30
2014,08,18,11,06,21.30
2014,08,18,11,07,21.30
2014,08,18,11,08,21.20
2014,08,18,11,09,21.20
2014,08,18,11,10,21.10
2014,08,18,11,11,21.10
2014,08,18,11,12,21.00
2014,08,18,11,13,20.90
2014,08,18,11,14,20.90
2014,08,18,11,15,20.90
2014,08,18,11,16,20.90
2014,08,18,11,17,20.90
2014,08,18,11,18,20.90
2014,08,18,11,19,21.00
2014,08,18,11,20,21.00
2014,08,18,11,21,21.10
2014,08,18,11,22,21.10
2014,08,18,11,23,21.20
2014,08,18,11,24,21.20
2014,08,18,11,25,21.20
2014,08,18,11,26,21.30
2014,08,18,11,27,21.30
2014,08,18,11,28,21.30
2014,08,18,11,29,21.30
2014,08,18,11,30,21.40
2014,08,18,11,31,21.40
2014,08,18,11,32,21.40
2014,08,18,11,33,21.50
2014,08,18,11,34,21.50
2014,08,18,11,35,21.60
2014,08,18,11,36,21.60
2014,08,18,11,37,21.60
2014,08,18,11,38,21.60
2014,08,18,11,39,21.70
2014,08,18,11,40,21.70
2014,08,18,11,41,21.70
2014,08,18,11,42,21.70
2014,08,18,11,43,21.80
2014,08,18,11,44,21.80
2014,08,18,11,45,21.80
2014,08,18,11,46,21.90
2014,08,18,11,47,21.90
2014,08,18,11,48,22.00
2014,08,18,11,49,22.00
2014,08,18,11,50,21.90
2014,08,18,11,51,21.90
2014,08,18,11,52,21.90
2014,08,18,11,53,21.90
2014,08,18,11,54,21.90
2014,08,18,11,55,21.90
2014,08,18,11,56,21.90
2014,08,18,11,57,21.80
2014,08,18,11,58,21.80
2014,08,18,11,59,21.80
2014,08,18,12,00,21.90
2014,08,18,12,01,22.00
2014,08,18,12,02,22.00
2014,08,18,12,03,22.10
2014,08,18,12,04,22.10
2014,08,18,12,05,22.10
2014,08,18,12,06,22.20
2014,08,18,12,07,22.20
2014,08,18,12,08,22.30
2014,08,18,12,09,22.40
2014,08,18,12,10,22.40
2014,08,18,12,11,22.40
2014,08,18,12,12,22.40
2014,08,18,12,13,22.50
2014,08,18,12,14,22.70
2014,08,18,12,15,22.80
2014,08,18,12,16,22.80
2014,08,18,12,17,22.70
2014,08,18,12,18,22.70
2014,08,18,12,19,22.70
2014,08,18,12,20,22.70
2014,08,18,12,21,22.70
2014,08,18,12,22,22.70
2014,08,18,12,23,22.80
2014,08,18,12,24,22.80
2014,08,18,12,25,22.90
2014,08,18,12,26,22.90
2014,08,18,12,27,23.00
2014,08,18,12,28,23.00
2014,08,18,12,29,23.00
2014,08,18,12,30,22.90
2014,08,18,12,31,22.90
2014,08,18,12,32,23.00
2014,08,18,12,33,23.10
2014,08,18,12,34,23.20
2014,08,18,12,35,23.40
2014,08,18,12,36,23.50
2014,08,18,12,37,23.60
2014,08,18,12,38,23.60
2014,08,18,12,39,23.60
2014,08,18,12,40,23.60
2014,08,18,12,41,23.60
2014,08,18,12,42,23.60
2014,08,18,12,43,23.60
2014,08,18,12,44,23.60
2014,08,18,12,45,23.60
2014,08,18,12,46,23.50
2014,08,18,12,47,23.50
2014,08,18,12,48,23.40
2014,08,18,12,49,23.40
2014,08,18,12,50,23.40
2014,08,18,12,51,23.40
2014,08,18,12,52,23.50
2014,08,18,12,53,23.60
2014,08,18,12,54,23.70
2014,08,18,12,55,23.80
2014,08,18,12,56,23.80
2014,08,18,12,57,23.90
2014,08,18,12,58,24.00
2014,08,18,12,59,24.10
2014,08,18,13,00,24.20
2014,08,18,13,01,24.30
2014,08,18,13,02,24.40
2014,08,18,13,03,24.30
2014,08,18,13,04,24.30
2014,08,18,13,05,24.20
2014,08,18,13,06,24.10
2014,08,18,13,07,23.90
2014,08,18,13,08,23.90
2014,08,18,13,09,23.80
2014,08,18,13,10,23.70
2014,08,18,13,11,23.60
2014,08,18,13,12,23.50
2014,08,18,13,13,23.50
2014,08,18,13,14,23.50
2014,08,18,13,15,23.40
2014,08,18,13,16,23.40
2014,08,18,13,17,23.30
2014,08,18,13,18,23.40
2014,08,18,13,19,23.40
2014,08,18,13,20,23.50
2014,08,18,13,21,23.60
2014,08,18,13,22,23.80
2014,08,18,13,23,23.80
2014,08,18,13,24,23.80
2014,08,18,13,25,23.90
2014,08,18,13,26,24.00
2014,08,18,13,27,24.10
2014,08,18,13,28,24.20
2014,08,18,13,29,24.40
2014,08,18,13,30,24.60
2014,08,18,13,31,24.70
2014,08,18,13,32,24.70
2014,08,18,13,33,24.80
2014,08,18,13,34,24.90
2014,08,18,13,35,24.90
2014,08,18,13,36,25.00
2014,08,18,13,37,25.10
2014,08,18,13,38,25.10
2014,08,18,13,39,25.20
2014,08,18,13,40,25.20
2014,08,18,13,41,25.30
2014,08,18,13,42,25.30
2014,08,18,13,43,25.30
2014,08,18,13,44,25.30
2014,08,18,13,45,25.30
2014,08,18,13,46,25.30
2014,08,18,13,47,25.20
2014,08,18,13,48,25.30
2014,08,18,13,49,25.30
2014,08,18,13,50,25.40
2014,08,18,13,51,25.40
2014,08,18,13,52,25.40
2014,08,18,13,53,25.40
2014,08,18,13,54,25.40
2014,08,18,13,55,25.40
2014,08,18,13,56,25.50
2014,08,18,13,57,25.50
2014,08,18,13,58,25.60
2014,08,18,13,59,25.60
2014,08,18,14,00,25.60
2014,08,18,14,01,25.60
2014,08,18,14,02,25.70
2014,08,18,14,03,25.70
2014,08,18,14,04,25.70
2014,08,18,14,05,25.70
2014,08,18,14,06,25.70
2014,08,18,14,07,25.70
2014,08,18,14,08,25.60
2014,08,18,14,09,25.50
2014,08,18,14,10,25.40
2014,08,18,14,11,25.40
2014,08,18,14,12,25.40
2014,08,18,14,13,25.40
2014,08,18,14,14,25.50
2014,08,18,14,15,25.50
2014,08,18,14,16,25.60
2014,08,18,14,17,25.60
2014,08,18,14,18,25.60
2014,08,18,14,19,25.70
2014,08,18,14,20,25.70
2014,08,18,14,21,25.80
2014,08,18,14,22,25.90
2014,08,18,14,23,26.00
2014,08,18,14,24,26.10
2014,08,18,14,25,26.20
2014,08,18,14,26,26.30
2014,08,18,14,27,26.30
2014,08,18,14,28,26.30
2014,08,18,14,29,26.30
2014,08,18,14,30,26.30
2014,08,18,14,31,26.30
2014,08,18,14,32,26.20
2014,08,18,14,33,26.20
2014,08,18,14,34,26.10
2014,08,18,14,35,26.10
2014,08,18,14,36,26.00
2014,08,18,14,37,26.00
2014,08,18,14,38,25.90
2014,08,18,14,39,25.90
2014,08,18,14,40,25.90
2014,08,18,14,41,25.80
2014,08,18,14,42,25.80
2014,08,18,14,43,25.80
2014,08,18,14,44,25.80
2014,08,18,14,45,25.90
2014,08,18,14,46,25.80
2014,08,18,14,47,25.80
2014,08,18,14,48,25.70
2014,08,18,14,49,25.70
2014,08,18,14,50,25.60
2014,08,18,14,51,25.60
2014,08,18,14,52,25.60
2014,08,18,14,53,25.50
2014,08,18,14,54,25.40
2014,08,18,14,55,25.30
2014,08,18,14,56,25.20
2014,08,18,14,57,25.10
2014,08,18,14,58,25.00
2014,08,18,14,59,24.90
2014,08,18,15,00,24.90
2014,08,18,15,01,24.80
2014,08,18,15,02,24.60
2014,08,18,15,03,24.50
2014,08,18,15,04,24.40
2014,08,18,15,05,24.30
2014,08,18,15,06,24.20
2014,08,18,15,07,24.00
2014,08,18,15,08,23.70
2014,08,18,15,09,23.40
2014,08,18,15,10,23.20
2014,08,18,15,11,23.00
2014,08,18,15,12,22.80
2014,08,18,15,13,22.60
2014,08,18,15,14,22.40
2014,08,18,15,15,22.30
2014,08,18,15,16,22.20
2014,08,18,15,17,22.10
2014,08,18,15,18,22.10
2014,08,18,15,19,22.00
2014,08,18,15,20,21.90
2014,08,18,15,21,21.80
2014,08,18,15,22,21.70
2014,08,18,15,23,21.60
2014,08,18,15,24,21.50
2014,08,18,15,25,21.40
2014,08,18,15,26,21.30
2014,08,18,15,27,21.20
2014,08,18,15,28,21.00
2014,08,18,15,29,20.90
2014,08,18,15,30,20.80
2014,08,18,15,31,20.70
2014,08,18,15,32,20.70
2014,08,18,15,33,20.80
2014,08,18,15,34,20.80
2014,08,18,15,35,20.90
2014,08,18,15,36,20.90
2014,08,18,15,37,20.90
2014,08,18,15,38,21.00
2014,08,18,15,39,21.00
2014,08,18,15,40,21.00
2014,08,18,15,41,21.00
2014,08,18,15,42,21.00
2014,08,18,15,43,21.00
2014,08,18,15,44,21.10
2014,08,18,15,45,21.10
2014,08,18,15,46,21.20
2014,08,18,15,47,21.20
2014,08,18,15,48,21.30
2014,08,18,15,49,21.30
2014,08,18,15,50,21.40
2014,08,18,15,51,21.40
2014,08,18,15,52,21.40
2014,08,18,15,53,21.40
2014,08,18,15,54,21.30
2014,08,18,15,55,21.30
2014,08,18,15,56,21.30
2014,08,18,15,57,21.20
2014,08,18,15,58,21.20
2014,08,18,15,59,21.20
2014,08,18,16,00,21.20
2014,08,18,16,01,21.20
2014,08,18,16,02,21.10
2014,08,18,16,03,21.00
2014,08,18,16,04,20.90
2014,08,18,16,05,20.90
2014,08,18,16,06,20.90
2014,08,18,16,07,20.90
2014,08,18,16,08,20.90
2014,08,18,16,09,20.90
2014,08,18,16,10,20.90
2014,08,18,16,11,20.90
2014,08,18,16,12,21.00
2014,08,18,16,13,21.00
2014,08,18,16,14,21.00
2014,08,18,16,15,21.10
2014,08,18,16,16,21.10
2014,08,18,16,17,21.10
2014,08,18,16,18,21.10
2014,08,18,16,19,21.10
2014,08,18,16,20,21.10
2014,08,18,16,21,21.10
2014,08,18,16,22,21.10
2014,08,18,16,23,21.10
2014,08,18,16,24,21.10
2014,08,18,16,25,21.10
2014,08,18,16,26,21.00
2014,08,18,16,27,21.00
2014,08,18,16,28,20.90
2014,08,18,16,29,20.90
2014,08,18,16,30,20.90
2014,08,18,16,31,20.90
2014,08,18,16,32,20.90
2014,08,18,16,33,21.00
2014,08,18,16,34,21.00
2014,08,18,16,35,21.00
2014,08,18,16,36,20.90
2014,08,18,16,37,20.90
2014,08,18,16,38,20.90
2014,08,18,16,39,20.80
2014,08,18,16,40,20.80
2014,08,18,16,41,20.80
2014,08,18,16,42,20.80
2014,08,18,16,43,20.80
2014,08,18,16,44,20.80
2014,08,18,16,45,20.90
2014,08,18,16,46,20.90
2014,08,18,16,47,20.90
2014,08,18,16,48,20.90
2014,08,18,16,49,21.00
2014,08,18,16,50,21.10
2014,08,18,16,51,21.10
2014,08,18,16,52,21.20
2014,08,18,16,53,21.20
2014,08,18,16,54,21.20
2014,08,18,16,55,21.30
2014,08,18,16,56,21.30
2014,08,18,16,57,21.30
2014,08,18,16,58,21.30
2014,08,18,16,59,21.30
2014,08,18,17,00,21.40
2014,08,18,17,01,21.40
2014,08,18,17,02,21.40
2014,08,18,17,03,21.30
2014,08,18,17,04,21.30
2014,08,18,17,05,21.30
2014,08,18,17,06,21.30
2014,08,18,17,07,21.30
2014,08,18,17,08,21.30
2014,08,18,17,09,21.30
2014,08,18,17,10,21.30
2014,08,18,17,11,21.30
2014,08,18,17,12,21.30
2014,08,18,17,13,21.30
2014,08,18,17,14,21.30
2014,08,18,17,15,21.30
2014,08,18,17,16,21.30
2014,08,18,17,17,21.30
2014,08,18,17,18,21.30
2014,08,18,17,19,21.30